Location: Düngen
(52.0952°N, 10.0219°E)
Time: 18:39:33
(UTC+00:00)

Intercosmos 25 - Pass Details

Date: 11 March 2026
Orbit: 438 x 2816 km, 82.6° (Epoch: 20 April)

Event Time Altitude Azimuth Distance (km) Brightness Sun altitude
Rises 19:48:53 0° 350° (N) 2,455 7.2 -23.4°
Reaches altitude 10° 19:50:50 10° 351° (N) 1,566 6.1 -23.7°
Enters shadow 19:52:35 31° 356° (N) 822 4.4 -23.9°
